• In Czech Republic
  • List of Countries
  • For 7 days
  • Water Temperature
  • Satellite Maps
  • Weather Map
  • Weather Widgets
  • user-avatar
    Login

    Hourly Weather Musajid

    Today, 12 December, Tuesday

    Time Temperature Precipitation Wind Pressure Humidity
    00:00 +18°C° 0 mm 8 mps 765 mmHg 48%
    01:00 +18°C° 0 mm 8 mps 764 mmHg 49%
    02:00 +18°C° 0 mm 8 mps 764 mmHg 50%
    03:00 +17°C° 0 mm 8 mps 764 mmHg 48%
    04:00 +17°C° 0 mm 8 mps 764 mmHg 49%
    05:00 +17°C° 0 mm 8 mps 764 mmHg 51%
    06:00 +17°C° 0 mm 8 mps 764 mmHg 53%
    07:00 +18°C° 0 mm 9 mps 764 mmHg 52%
    08:00 +21°C° 0 mm 9 mps 765 mmHg 51%
    09:00 +22°C° 0 mm 9 mps 765 mmHg 47%
    10:00 +22°C° 0 mm 9 mps 765 mmHg 46%
    11:00 +23°C° 0 mm 10 mps 764 mmHg 45%
    12:00 +24°C° 0 mm 10 mps 764 mmHg 44%
    13:00 +24°C° 0 mm 10 mps 764 mmHg 44%
    14:00 +23°C° 0 mm 10 mps 763 mmHg 44%
    15:00 +23°C° 0 mm 10 mps 763 mmHg 44%
    16:00 +22°C° 0 mm 9 mps 763 mmHg 48%
    17:00 +22°C° 0 mm 9 mps 764 mmHg 51%
    18:00 +21°C° 0 mm 8 mps 764 mmHg 55%
    19:00 +20°C° 0 mm 8 mps 764 mmHg 56%
    20:00 +20°C° 0 mm 8 mps 764 mmHg 57%
    21:00 +20°C° 0 mm 8 mps 764 mmHg 58%
    22:00 +20°C° 0 mm 7 mps 764 mmHg 59%
    23:00 +20°C° 0 mm 7 mps 764 mmHg 60%

    Tomorrow, 13 December, Wednesday

    Time Temperature Precipitation Wind Pressure Humidity
    00:00 +18°C° 0 mm 7 mps 764 mmHg 60%
    01:00 +18°C° 0 mm 7 mps 764 mmHg 61%
    02:00 +19°C° 0 mm 6 mps 764 mmHg 62%
    03:00 +19°C° 0 mm 6 mps 764 mmHg 63%
    04:00 +19°C° 0 mm 6 mps 764 mmHg 64%
    05:00 +19°C° 0 mm 6 mps 764 mmHg 64%
    06:00 +19°C° 0 mm 5 mps 764 mmHg 65%
    07:00 +20°C° 0 mm 5 mps 765 mmHg 61%
    08:00 +21°C° 0 mm 5 mps 765 mmHg 57%
    09:00 +22°C° 0 mm 5 mps 765 mmHg 53%
    10:00 +23°C° 0 mm 4 mps 764 mmHg 50%
    11:00 +25°C° 0 mm 4 mps 764 mmHg 47%
    12:00 +25°C° 0 mm 4 mps 763 mmHg 43%
    13:00 +25°C° 0 mm 4 mps 763 mmHg 43%
    14:00 +25°C° 0 mm 3 mps 763 mmHg 43%
    15:00 +25°C° 0 mm 3 mps 762 mmHg 43%
    16:00 +24°C° 0 mm 3 mps 762 mmHg 47%
    17:00 +22°C° 0 mm 3 mps 762 mmHg 51%
    18:00 +21°C° 0 mm 3 mps 763 mmHg 55%
    19:00 +21°C° 0 mm 3 mps 763 mmHg 57%
    20:00 +21°C° 0 mm 3 mps 763 mmHg 60%
    21:00 +20°C° 0 mm 3 mps 763 mmHg 62%
    22:00 +20°C° 0 mm 3 mps 763 mmHg 63%
    23:00 +20°C° 0 mm 3 mps 763 mmHg 63%

    Day after tomorrow, 14 December, Thursday

    Time Temperature Precipitation Wind Pressure Humidity
    00:00 +20°C° 0 mm 2 mps 762 mmHg 64%
    01:00 +19°C° 0 mm 2 mps 762 mmHg 65%
    02:00 +19°C° 0 mm 2 mps 762 mmHg 66%
    03:00 +19°C° 0 mm 2 mps 762 mmHg 67%
    04:00 +19°C° 0 mm 2 mps 762 mmHg 68%
    05:00 +19°C° 0 mm 2 mps 762 mmHg 69%
    06:00 +19°C° 0 mm 2 mps 762 mmHg 70%
    07:00 +20°C° 0 mm 2 mps 763 mmHg 66%
    08:00 +21°C° 0 mm 2 mps 763 mmHg 62%
    09:00 +23°C° 0 mm 2 mps 764 mmHg 58%
    10:00 +24°C° 0 mm 1 mps 763 mmHg 55%
    11:00 +24°C° 0 mm 1 mps 763 mmHg 53%
    12:00 +25°C° 0 mm 1 mps 762 mmHg 50%
    13:00 +26°C° 0 mm 1 mps 762 mmHg 48%
    14:00 +26°C° 0 mm 1 mps 761 mmHg 47%
    15:00 +26°C° 0 mm 1 mps 761 mmHg 45%
    16:00 +26°C° 0 mm 2 mps 761 mmHg 48%
    17:00 +25°C° 0 mm 2 mps 761 mmHg 51%
    18:00 +24°C° 0 mm 2 mps 761 mmHg 54%
    19:00 +24°C° 0 mm 3 mps 761 mmHg 57%
    20:00 +24°C° 0 mm 3 mps 761 mmHg 60%
    21:00 +22°C° 0 mm 3 mps 762 mmHg 62%
    22:00 +22°C° 0 mm 3 mps 762 mmHg 62%
    23:00 +22°C° 0 mm 3 mps 761 mmHg 63%

    15 December, Friday

    Time Temperature Precipitation Wind Pressure Humidity
    00:00 +22°C° 0 mm 3 mps 761 mmHg 63%
    01:00 +21°C° 0 mm 4 mps 761 mmHg 61%
    02:00 +21°C° 0 mm 4 mps 761 mmHg 59%
    03:00 +21°C° 0 mm 4 mps 760 mmHg 57%
    04:00 +21°C° 0 mm 4 mps 761 mmHg 55%
    05:00 +21°C° 0 mm 4 mps 761 mmHg 53%
    06:00 +20°C° 0 mm 4 mps 761 mmHg 51%
    07:00 +22°C° 0 mm 5 mps 762 mmHg 47%
    08:00 +23°C° 0 mm 5 mps 762 mmHg 44%
    09:00 +25°C° 0 mm 5 mps 763 mmHg 40%
    10:00 +26°C° 0 mm 5 mps 762 mmHg 38%
    11:00 +27°C° 0 mm 6 mps 762 mmHg 35%
    12:00 +28°C° 0 mm 6 mps 761 mmHg 33%
    13:00 +28°C° 0 mm 6 mps 761 mmHg 33%
    14:00 +28°C° 0 mm 5 mps 761 mmHg 32%
    15:00 +28°C° 0 mm 5 mps 760 mmHg 32%
    16:00 +27°C° 0 mm 4 mps 761 mmHg 35%
    17:00 +26°C° 0 mm 4 mps 761 mmHg 38%
    18:00 +25°C° 0 mm 3 mps 761 mmHg 41%
    19:00 +25°C° 0 mm 3 mps 761 mmHg 42%
    20:00 +24°C° 0 mm 3 mps 762 mmHg 43%
    21:00 +24°C° 0 mm 3 mps 762 mmHg 45%
    22:00 +24°C° 0 mm 3 mps 762 mmHg 46%
    23:00 +22°C° 0 mm 3 mps 762 mmHg 48%

    16 December, Saturday

    Time Temperature Precipitation Wind Pressure Humidity
    00:00 +22°C° 0 mm 3 mps 761 mmHg 49%
    01:00 +21°C° 0 mm 3 mps 761 mmHg 50%
    02:00 +21°C° 0 mm 3 mps 761 mmHg 51%
    03:00 +21°C° 0 mm 3 mps 761 mmHg 51%
    04:00 +21°C° 0 mm 4 mps 762 mmHg 53%
    05:00 +21°C° 0 mm 4 mps 762 mmHg 55%
    06:00 +21°C° 0 mm 4 mps 762 mmHg 56%
    07:00 +22°C° 0.1 mm 5 mps 763 mmHg 54%
    08:00 +23°C° 0.1 mm 5 mps 763 mmHg 51%
    09:00 +25°C° 0.1 mm 5 mps 764 mmHg 48%
    10:00 +26°C° 0.6 mm 5 mps 763 mmHg 47%
    11:00 +26°C° 0.6 mm 5 mps 763 mmHg 46%
    12:00 +27°C° 0.6 mm 5 mps 762 mmHg 44%
    13:00 +27°C° 0.3 mm 5 mps 762 mmHg 45%
    14:00 +26°C° 0.3 mm 4 mps 762 mmHg 46%
    15:00 +26°C° 0.3 mm 3 mps 761 mmHg 47%
    16:00 +25°C° 0.6 mm 3 mps 762 mmHg 49%
    17:00 +24°C° 0.6 mm 3 mps 762 mmHg 52%
    18:00 +22°C° 0.6 mm 3 mps 763 mmHg 55%
    19:00 +22°C° 1.4 mm 3 mps 763 mmHg 56%
    20:00 +22°C° 1.4 mm 4 mps 763 mmHg 58%
    21:00 +21°C° 1.4 mm 5 mps 764 mmHg 60%
    22:00 +21°C° 0.5 mm 4 mps 764 mmHg 61%
    23:00 +21°C° 0.5 mm 4 mps 763 mmHg 62%

    17 December, Sunday

    Time Temperature Precipitation Wind Pressure Humidity
    00:00 +22°C° 0.5 mm 4 mps 763 mmHg 63%
    01:00 +21°C° 1 mm 4 mps 763 mmHg 64%
    02:00 +21°C° 1 mm 4 mps 763 mmHg 65%
    03:00 +21°C° 1 mm 4 mps 763 mmHg 66%
    04:00 +21°C° 0.3 mm 4 mps 764 mmHg 67%
    05:00 +20°C° 0.3 mm 3 mps 764 mmHg 67%
    06:00 +20°C° 0.3 mm 3 mps 764 mmHg 68%
    07:00 +21°C° 0.9 mm 3 mps 765 mmHg 65%
    08:00 +21°C° 0.9 mm 3 mps 765 mmHg 62%
    09:00 +22°C° 0.9 mm 4 mps 766 mmHg 60%
    10:00 +24°C° 0.2 mm 3 mps 765 mmHg 57%
    11:00 +24°C° 0.2 mm 3 mps 765 mmHg 54%
    12:00 +25°C° 0.2 mm 2 mps 764 mmHg 50%
    13:00 +25°C° 0.2 mm 2 mps 764 mmHg 50%
    14:00 +25°C° 0.2 mm 2 mps 764 mmHg 50%
    15:00 +25°C° 0.2 mm 2 mps 764 mmHg 50%
    16:00 +25°C° 0.3 mm 2 mps 764 mmHg 53%
    17:00 +24°C° 0.3 mm 3 mps 764 mmHg 55%
    18:00 +22°C° 0.3 mm 3 mps 765 mmHg 57%
    19:00 +22°C° 0.1 mm 3 mps 765 mmHg 59%
    20:00 +22°C° 0.1 mm 3 mps 765 mmHg 60%
    21:00 +22°C° 0.1 mm 3 mps 766 mmHg 61%
    22:00 +21°C° 0.3 mm 3 mps 765 mmHg 62%
    23:00 +21°C° 0.3 mm 3 mps 765 mmHg 63%
    Show more